{"data":{"norad_id":58835,"epoch":"2026-05-25T03:33:35.013024Z","epoch_age_seconds":56016,"freshness":"FRESH","line1":"1 58835U 24017K   26145.14832191  .00004535  00000+0  16501-3 0  9992","line2":"2 58835  53.1596 209.0867 0001549 115.4893 244.6269 15.30228808131760","mean_motion":15.30228808,"eccentricity":0.0001549,"inclination_deg":53.1596,"raan_deg":209.0867,"arg_perigee_deg":115.4893,"mean_anomaly_deg":244.6269,"bstar":0.00016501,"rev_number":13176,"period_min":94.103574084589,"perigee_km":474.06748436148,"apogee_km":476.1906261854,"semimajor_km":6853.2660552734,"source":"CELESTRAK","updated_at":"2026-05-25T13:38:18.754454Z"}}